Terminal Aerodrome Forecast
Issued by NWS

Home | Current Version | Previous Version | Text Only | Print | Product List | Glossary On
Versions: 1 2 3 4 5 6 7 8 9 10 11 12
000
FTUS44 KMAF 201100
TAFHOB
TAF
KHOB 201120Z 2012/2112 16008KT P6SM SKC
     FM201600 16011G21KT P6SM SCT050 SCT250
     FM210200 17007KT P6SM FEW200=

USA.gov is the U.S. government's official web portal to all federal, state and local government web resources and services.